GFSNE_sfc_rhum_150.txt.gz
RH
94 92 93 92 91 90 91 88 91 94 96 96 96 77 75 78 80 80 76 87 88 89 90 92 92 92 90 90 89 88 86 84 85 89 89 87 86 83
89 87 90 91 92 91 94 91 91 91 90 96 92 92 77 72 77 77 74 86 88 89 91 94 95 94 93 92 92 91 91 90 91 92 91 89 87 85
83 86 89 90 89 93 93 92 92 91 92 84 91 96 93 83 83 79 80 90 86 91 91 92 96 97 96 95 95 94 94 94 95 95 92 90 86 84
93 95 95 94 93 91 95 93 93 89 90 90 90 99 96 93 93 94 95 94 85 93 93 94 94 96 97 97 96 96 96 97 98 97 93 89 87 85
93 96 96 96 97 94 96 96 94 92 92 91 89 99 99 100 100 100 99 99 98 99 96 94 94 95 96 96 96 96 97 99 100 98 96 93 91 88
87 92 92 94 97 94 94 94 94 94 94 96 95 100 99 99 99 99 100 100 100 100 100 100 98 96 95 96 97 97 98 100 100 98 97 97 96 92
83 82 86 92 100 99 96 95 97 98 98 99 98 100 100 100 99 99 99 100 100 100 100 100 100 99 98 99 95 96 99 99 99 97 95 95 96 95
85 83 81 90 95 100 100 100 100 97 98 99 98 99 99 97 99 99 100 100 100 100 100 100 100 100 100 100 99 100 99 98 98 96 95 95 94 95
82 87 88 86 96 95 99 100 100 100 100 95 98 98 96 94 95 100 100 100 100 100 99 100 100 100 100 99 98 100 99 98 98 96 96 95 96 96
85 81 87 88 92 97 96 99 99 98 98 99 98 94 90 90 91 92 96 100 100 100 100 100 100 99 100 100 97 98 98 98 97 96 95 95 95 94
85 88 86 91 98 95 98 98 99 99 100 100 100 100 100 100 98 99 100 100 100 100 100 99 99 99 99 99 100 97 98 97 98 98 96 95 95 95
91 85 89 94 94 95 98 98 98 98 100 100 100 100 100 100 99 93 98 99 100 100 100 98 99 97 100 99 99 99 99 97 98 98 98 99 99 98
87 86 86 92 92 93 94 98 98 100 99 100 100 100 100 100 98 98 96 97 99 100 98 95 98 98 96 99 99 99 98 98 99 99 98 99 100 98
91 88 89 82 85 87 93 97 98 99 99 100 100 100 100 100 100 100 100 100 99 100 98 98 96 92 96 99 99 99 99 98 96 97 98 100 100 100
84 85 84 82 83 93 92 95 98 99 100 100 100 100 100 100 100 100 100 100 100 100 99 99 93 91 89 92 97 97 98 98 96 96 98 98 97 98
82 85 86 82 89 90 95 93 95 98 98 99 100 100 100 100 100 99 99 98 99 99 100 98 94 91 95 91 88 95 90 96 96 96 96 98 98 98
89 91 88 86 80 81 83 90 91 93 97 98 99 100 100 100 99 99 98 98 97 98 99 99 98 94 91 90 95 89 93 95 93 96 97 97 97 96
88 93 91 92 91 90 88 91 90 93 94 97 98 99 100 99 99 99 97 96 95 97 98 98 97 97 95 97 81 92 92 93 96 96 95 95 97 98
89 89 91 92 91 90 92 92 94 93 96 97 99 99 99 99 98 98 98 98 97 95 94 94 95 93 94 96 99 78 90 91 96 97 95 95 96 97
87 90 92 91 91 92 92 93 92 93 96 97 98 98 98 97 98 97 96 96 96 94 96 95 95 94 89 91 94 98 82 92 89 95 96 96 94 94
88 90 92 93 91 93 93 93 95 96 96 98 98 98 98 97 98 97 96 96 94 92 95 96 98 96 87 82 93 97 98 85 84 88 95 95 96 96
91 91 91 92 94 94 94 95 95 95 96 98 98 98 98 97 96 96 96 96 97 97 97 97 96 94 95 91 91 94 96 97 97 96 93 89 96 97
93 93 93 93 92 93 95 96 96 96 97 98 98 98 98 97 97 97 97 96 95 95 95 96 96 96 95 91 92 95 95 96 94 94 94 79 80 82

GFSNE_sfc_rhum_156.txt.gz
RH
97 97 95 96 96 96 91 89 84 91 92 98 98 95 94 93 93 95 93 97 97 96 95 94 94 94 92 90 90 89 87 85 82 81 80 79 83 85
98 98 96 94 93 95 95 93 91 87 92 93 98 98 96 95 93 96 94 98 98 97 97 95 95 93 94 93 93 92 92 90 86 84 84 83 85 88
98 96 96 97 98 98 97 95 95 94 94 92 95 96 98 97 95 96 95 94 94 96 96 96 95 95 97 97 96 96 94 93 91 88 86 86 87 90
99 98 97 94 95 93 93 92 96 92 91 91 94 98 95 94 92 98 97 96 93 98 96 96 95 96 98 99 100 99 97 96 95 91 91 89 88 90
93 95 97 97 97 98 98 97 97 96 96 94 92 97 96 99 98 98 98 97 96 96 98 96 95 95 97 99 100 100 99 98 97 97 96 95 94 94
92 93 94 96 97 97 97 98 97 99 99 99 97 99 100 100 99 99 99 100 99 100 99 97 95 95 95 97 99 99 99 98 98 98 98 99 99 99
89 86 93 94 96 97 93 97 97 98 99 99 99 100 100 100 99 99 98 100 100 100 99 99 98 98 96 98 95 98 99 99 98 98 98 99 100 100
94 90 84 90 92 93 93 94 99 98 98 100 100 100 99 99 100 100 100 100 100 100 100 100 99 99 96 96 94 99 100 99 99 99 99 99 100 100
94 88 84 83 91 88 89 90 91 94 100 99 99 99 99 98 98 100 100 100 98 100 100 100 100 100 100 100 99 100 100 99 99 99 99 100 100 100
92 91 92 96 88 85 91 93 94 91 93 93 98 97 98 98 98 95 96 100 100 100 100 100 100 100 100 100 98 98 98 99 100 99 99 100 100 100
85 89 89 93 83 83 90 96 93 97 93 92 94 95 97 99 99 100 100 100 100 100 100 100 100 100 100 100 100 97 98 99 99 100 99 99 99 99
85 85 82 85 83 82 90 94 97 96 98 96 96 96 97 98 100 99 99 99 100 100 100 100 99 99 100 99 100 100 100 99 99 99 99 99 99 99
87 88 89 86 85 83 88 96 97 97 97 98 99 99 99 99 99 100 99 98 100 100 99 98 100 100 100 99 99 99 100 100 100 100 99 99 98 98
93 93 93 86 86 88 92 93 92 96 96 97 98 99 99 99 99 99 100 100 100 99 99 99 100 99 99 100 99 99 99 100 100 100 100 99 96 95
86 85 81 86 83 86 84 83 89 93 94 97 97 97 98 98 99 100 100 100 100 100 100 100 100 100 100 98 98 99 99 99 100 99 99 98 98 97
87 88 87 90 90 92 90 84 82 92 96 91 94 94 93 95 98 99 100 100 100 99 100 100 100 100 99 98 97 98 98 98 98 98 98 98 98 93
87 87 89 88 88 88 86 85 82 80 91 93 92 94 94 94 96 99 100 100 100 100 100 99 100 99 99 97 98 97 97 98 96 97 97 98 98 96
86 92 93 93 92 88 92 92 85 85 91 88 87 88 92 93 96 96 99 99 99 99 99 99 98 99 99 98 99 96 97 97 97 97 96 95 97 98
91 92 94 94 94 91 91 90 89 89 92 88 90 90 91 91 96 96 98 99 99 99 99 98 98 96 98 98 98 94 95 95 96 98 96 98 96 98
90 94 94 94 93 92 90 93 92 91 93 94 93 92 92 94 96 95 97 98 99 99 100 98 97 96 96 95 97 99 93 94 96 96 97 98 98 98
93 93 94 94 94 93 93 93 93 93 94 96 95 94 94 95 95 95 96 97 98 98 98 98 97 95 94 93 96 98 98 98 94 94 96 96 96 97
94 94 94 94 94 94 94 94 93 92 93 93 94 95 95 96 96 96 96 97 98 97 98 98 97 96 98 96 96 96 97 98 98 98 98 96 95 97
95 95 94 94 93 93 92 93 93 93 92 94 94 95 96 97 95 96 97 98 98 98 95 96 97 98 97 95 93 95 96 96 96 97 98 98 98 97

GFSNE_sfc_rhum_159.txt.gz
RH
89 95 94 91 92 90 93 91 90 95 96 93 92 94 94 93 93 94 94 97 99 99 98 96 95 93 92 90 87 87 86 85 85 84 82 81 79 79
91 96 95 94 95 93 93 93 89 84 85 87 94 98 95 94 93 94 94 96 100 100 100 99 97 95 95 93 93 91 90 90 88 87 85 84 82 81
90 95 95 93 95 96 95 92 92 94 91 91 96 96 99 96 93 97 96 97 97 100 100 99 99 97 98 98 98 95 93 93 92 90 88 86 85 83
95 95 91 97 97 96 95 94 93 93 93 93 94 98 98 98 97 98 97 97 97 100 99 99 99 98 100 100 99 98 97 97 96 94 91 88 86 84
93 97 98 98 98 98 97 96 95 92 93 93 95 97 96 98 99 98 98 97 97 99 100 100 99 99 99 99 99 99 99 100 99 98 96 93 92 89
93 94 94 95 97 97 97 99 98 99 98 98 98 99 100 100 99 99 100 100 98 100 100 100 99 99 99 99 99 99 99 99 100 100 99 98 97 96
97 92 94 94 93 94 94 97 98 99 99 99 100 100 100 100 99 100 99 100 100 100 100 100 99 98 98 99 97 99 99 99 99 99 99 99 99 97
98 95 94 92 90 91 92 96 98 98 99 100 100 100 100 99 100 100 100 100 100 100 100 99 99 99 98 98 97 98 100 99 99 99 99 99 99 99
97 96 91 86 91 86 90 92 94 94 99 98 100 100 100 100 100 100 100 100 100 100 100 100 100 100 100 99 100 100 100 99 99 99 99 99 100 100
98 98 96 95 91 92 92 93 94 92 92 90 95 96 96 96 98 98 99 100 100 100 100 100 100 100 100 100 99 100 99 99 99 99 99 100 100 100
89 96 96 94 92 91 92 94 94 94 92 90 91 93 94 96 98 100 100 100 100 100 100 100 100 100 100 100 100 97 99 99 99 99 99 99 99 100
88 91 90 94 96 95 96 98 98 97 97 95 94 96 95 98 100 99 100 100 100 100 100 100 100 100 100 100 100 100 100 99 99 99 99 99 99 99
88 90 94 90 87 91 91 91 94 93 96 96 93 96 99 99 99 100 100 100 100 100 100 100 100 100 100 100 99 99 100 100 100 100 99 99 99 98
92 93 94 77 76 84 85 79 82 90 93 91 94 94 95 93 94 97 99 100 100 100 100 100 100 100 100 100 100 99 100 100 100 100 100 99 100 99
83 81 82 81 79 85 80 79 89 93 92 93 93 92 96 95 94 94 100 100 100 100 100 100 100 100 100 100 100 99 99 99 100 100 100 100 99 99
86 87 86 85 85 87 86 85 86 86 91 90 94 92 90 93 95 94 98 99 100 100 100 100 100 100 100 100 98 99 99 98 99 99 99 99 100 99
89 88 89 89 88 86 84 82 83 84 90 92 92 87 87 89 92 91 92 98 100 99 99 99 100 100 100 99 100 98 98 99 98 98 98 99 100 99
85 91 93 93 92 90 90 90 87 88 89 90 89 89 89 90 91 89 93 98 99 99 100 100 100 99 98 99 97 99 98 98 98 97 96 96 98 99
92 93 94 94 94 91 91 91 93 90 90 91 92 88 89 90 91 90 93 95 98 98 99 99 99 99 99 99 97 95 98 98 98 98 97 98 97 98
92 94 95 94 94 94 93 93 92 91 92 92 91 92 92 91 90 89 91 96 95 97 99 99 99 98 98 98 98 99 92 95 94 96 98 97 97 98
94 94 94 94 94 93 94 93 94 94 94 94 91 92 92 92 90 89 92 94 95 95 98 98 95 96 95 93 97 99 100 97 94 93 96 95 97 98
95 96 95 95 95 95 94 94 93 92 93 92 93 93 93 94 94 95 94 96 94 95 96 99 98 97 98 97 95 97 97 98 99 99 97 97 95 97
95 96 95 95 94 94 93 94 93 93 93 93 93 93 93 95 94 95 96 95 96 95 98 98 98 99 98 96 93 96 96 96 96 97 98 98 98 97

GFSNE_sfc_rhum_162.txt.gz
RH
92 92 90 86 85 87 90 88 88 96 97 96 98 95 92 92 95 95 95 98 99 99 99 97 95 94 92 90 87 85 84 84 84 83 82 80 80 80
90 91 92 90 85 85 91 90 90 87 93 90 97 94 93 92 93 95 94 98 100 100 100 99 97 95 95 93 91 89 88 87 86 86 86 84 82 82
90 88 92 91 84 88 93 93 92 90 90 91 86 89 97 94 92 95 92 94 94 100 100 99 99 99 98 97 95 92 90 90 93 89 88 87 85 83
95 90 90 90 87 90 94 93 94 92 90 89 97 99 96 96 92 97 96 94 94 100 99 99 99 99 100 100 98 97 95 95 95 94 91 90 88 86
96 95 92 92 96 95 91 93 92 92 91 91 95 97 97 99 98 97 97 96 96 99 100 99 99 99 99 100 100 99 99 99 99 98 96 95 93 90
97 97 96 95 98 97 98 98 96 97 96 97 97 99 100 100 99 97 99 99 98 100 100 99 99 99 99 99 99 100 99 99 100 100 99 99 98 95
96 96 99 92 98 98 96 97 98 99 97 98 98 100 100 100 98 99 99 100 100 100 99 100 99 98 98 99 98 99 99 99 99 99 100 100 99 98
96 96 97 98 95 98 94 99 98 98 99 99 100 100 100 99 100 100 100 100 100 100 99 99 98 99 98 98 99 100 99 99 99 99 99 100 99 99
97 97 95 96 96 97 92 94 96 98 99 99 99 99 99 100 99 100 100 100 100 100 100 100 100 100 99 99 100 100 100 99 99 99 99 100 100 100
98 97 97 97 97 99 96 97 97 96 99 94 96 96 94 95 97 98 100 100 100 100 100 100 100 100 100 100 100 99 99 99 99 99 99 99 100 100
85 97 96 97 96 99 98 96 95 97 92 91 92 92 94 96 98 100 100 100 100 100 100 100 100 100 100 100 100 98 99 99 99 99 99 99 99 99
83 84 86 89 95 92 95 96 94 93 94 93 92 91 94 97 99 100 100 100 100 100 100 100 100 100 100 100 100 100 100 99 99 99 99 99 99 98
84 87 87 86 87 88 88 93 95 91 94 92 93 93 93 94 95 96 99 100 100 100 100 100 100 100 100 100 99 100 100 100 100 100 99 99 99 98
90 88 85 78 80 85 90 91 89 93 91 91 92 94 96 94 92 90 93 100 99 99 100 100 100 100 100 100 100 100 100 100 100 100 100 99 99 99
80 79 78 79 78 84 79 83 91 91 92 92 93 93 94 93 90 91 92 100 100 100 100 100 100 100 100 100 100 100 100 100 100 100 100 100 100 100
84 83 82 83 80 81 82 82 86 90 90 92 92 92 88 88 90 91 94 95 99 100 100 100 100 100 100 100 100 100 99 100 99 100 100 100 100 100
85 85 86 87 86 84 82 79 82 84 89 90 90 90 88 88 85 84 87 91 98 98 99 100 100 100 100 100 100 100 99 99 99 99 99 99 99 99
85 91 92 92 92 89 90 89 85 87 87 88 90 89 90 90 89 86 89 90 93 92 99 99 99 99 99 99 95 99 99 98 99 99 98 98 99 99
92 93 94 94 93 90 89 89 91 89 90 90 91 92 91 88 90 90 86 88 91 92 91 98 99 99 100 100 94 94 97 98 98 99 97 97 98 99
92 94 95 94 92 92 90 91 89 90 90 90 92 93 94 94 93 90 86 89 90 89 90 89 98 98 98 99 98 97 94 97 97 98 98 97 98 98
94 94 95 94 94 93 94 94 94 94 94 94 92 92 94 93 92 91 92 92 89 89 91 90 89 95 98 96 98 99 100 95 92 92 95 95 95 94
95 95 94 94 95 94 94 94 94 93 93 92 93 94 94 94 94 94 94 95 92 93 92 89 90 97 98 97 96 97 98 99 97 96 94 90 94 95
95 95 95 95 94 94 93 94 93 93 92 93 93 93 94 95 93 93 94 93 93 93 92 93 91 95 95 97 96 97 97 97 96 96 98 97 92 91

GFSNE_sfc_rhum_165.txt.gz
RH
84 90 91 88 89 83 87 82 84 90 89 90 88 90 88 88 92 94 93 95 99 99 99 98 94 94 92 90 87 85 82 81 81 81 82 81 77 80
77 88 92 89 87 90 92 84 81 82 86 78 86 81 87 88 90 92 92 96 99 99 99 99 98 96 95 93 91 88 87 85 84 84 84 83 80 79
75 83 91 90 88 90 90 87 84 82 86 75 77 81 89 92 92 94 92 93 94 100 100 99 99 99 99 97 94 92 90 88 88 87 86 86 84 81
77 79 83 83 88 87 90 92 85 80 85 85 83 88 86 86 86 92 93 93 92 99 99 99 99 99 100 100 99 97 94 93 92 91 90 88 87 84
82 83 82 88 90 88 88 91 91 81 85 84 84 84 87 88 92 89 92 93 91 97 100 99 99 99 99 99 99 99 98 97 96 96 95 94 95 90
92 92 89 92 97 95 92 92 91 93 90 91 83 86 88 93 90 94 99 98 96 97 99 99 99 99 99 99 99 99 99 98 97 97 98 100 100 97
92 94 98 97 97 97 97 97 96 97 93 92 93 97 98 100 96 94 94 96 99 98 99 98 98 97 98 99 98 99 99 99 99 98 98 99 99 99
90 94 98 98 96 96 100 100 99 98 98 100 97 96 98 94 95 98 99 100 100 100 98 99 98 98 98 96 98 100 99 99 99 99 99 99 99 99
89 94 95 96 96 97 96 99 98 100 100 97 98 98 99 98 97 100 100 98 96 99 100 100 100 100 99 99 100 100 100 99 99 99 99 99 100 100
86 89 94 95 96 97 96 96 96 96 97 94 97 98 97 97 97 98 98 100 100 100 100 100 100 100 100 100 100 99 99 99 99 99 99 100 100 100
72 82 86 91 91 95 96 95 96 96 88 92 95 96 98 98 99 100 100 100 100 100 100 100 100 100 100 100 100 99 100 100 99 99 99 99 99 99
68 73 74 80 80 93 94 95 95 95 95 92 94 94 94 99 99 99 99 100 100 100 100 100 100 100 100 100 100 100 100 100 100 100 99 99 99 99
70 75 76 76 76 80 92 89 92 91 94 92 90 94 96 95 96 96 96 99 100 100 100 100 100 100 100 100 100 100 100 100 100 100 100 99 99 99
78 76 77 77 76 78 80 88 84 82 82 88 88 88 91 92 91 92 93 98 99 100 100 100 100 100 100 100 100 100 100 100 100 100 100 99 100 99
73 75 76 76 74 75 77 78 81 83 82 85 87 84 88 85 87 90 99 100 100 100 100 100 100 100 100 100 100 100 100 100 100 100 100 100 100 100
76 72 73 74 71 72 74 75 76 82 85 85 86 82 80 87 82 82 88 91 98 100 100 100 100 100 100 100 100 100 100 100 100 100 100 100 100 100
78 77 78 76 75 73 70 70 72 78 85 87 87 86 81 82 80 80 84 87 92 94 97 100 100 100 100 100 100 100 100 100 100 100 100 100 99 100
74 81 86 87 84 77 79 78 75 78 79 77 81 80 82 83 85 81 82 86 91 90 92 97 100 100 100 100 97 100 100 100 100 100 99 100 98 99
82 83 88 88 86 79 79 78 81 79 80 79 81 83 85 83 90 83 81 81 84 83 83 84 94 99 100 100 98 91 99 97 100 100 98 97 99 98
80 85 87 86 84 81 80 81 80 82 82 81 84 86 88 86 86 83 82 87 85 80 78 75 80 92 99 100 100 100 93 100 100 99 98 96 98 98
82 83 86 85 85 83 87 87 88 88 88 88 86 86 90 86 85 84 84 84 85 78 80 78 75 89 91 99 100 99 100 95 94 98 96 96 95 95
87 86 85 86 88 87 89 89 88 88 87 86 88 89 89 88 88 87 86 87 83 82 80 76 73 73 86 94 95 99 97 99 95 92 88 86 92 96
88 87 88 87 86 87 85 88 87 89 87 88 88 87 90 90 86 86 86 83 81 81 79 79 77 79 85 89 95 95 96 96 95 95 97 96 87 88

GFSNE_sfc_rhum_171.txt.gz
RH
68 67 67 68 73 78 82 85 95 97 94 79 73 60 56 55 61 66 79 81 97 98 97 96 95 93 93 93 91 87 83 80 80 79 78 78 78 75
62 67 70 69 71 76 83 85 87 95 96 75 65 61 58 49 57 65 67 94 100 100 99 99 98 96 94 93 93 91 87 84 83 82 81 80 78 78
65 69 72 68 74 76 77 78 83 86 94 76 65 60 67 65 64 67 69 73 85 100 100 99 100 100 98 96 95 94 92 88 86 85 84 83 81 79
73 70 70 58 74 73 76 76 79 75 83 91 72 66 68 67 68 74 71 68 85 98 99 99 99 99 100 100 99 98 95 92 90 88 87 85 84 82
72 74 74 74 76 78 79 78 74 67 79 87 83 72 69 68 72 74 73 76 78 89 99 99 99 99 99 100 100 99 98 97 95 93 91 89 88 85
79 75 74 78 80 88 84 79 76 83 78 82 81 80 76 72 79 84 83 79 80 77 98 99 98 98 98 99 99 99 99 98 98 96 95 95 94 91
81 68 77 74 72 85 84 88 84 86 82 82 84 83 80 84 89 86 85 77 80 93 98 98 98 97 97 99 98 99 99 99 99 98 96 96 95 94
82 80 74 76 79 72 72 71 79 96 94 90 88 87 79 84 88 95 97 91 95 95 94 95 98 98 98 98 97 99 99 98 99 99 99 98 97 96
82 81 78 81 79 82 77 74 75 75 95 98 95 89 90 86 96 96 96 95 89 96 96 98 100 98 98 97 98 99 99 99 99 99 99 99 99 99
79 80 85 83 81 78 86 86 85 84 95 96 97 97 96 97 97 96 96 98 100 98 97 100 100 100 100 99 100 99 99 99 99 99 99 99 99 99
59 69 77 81 73 73 86 87 86 84 82 90 94 96 98 99 98 97 95 98 100 100 100 100 100 100 100 100 100 99 99 99 99 99 99 99 99 99
62 62 63 72 71 72 82 88 92 89 91 93 92 94 97 98 96 96 96 98 99 100 99 100 100 100 100 100 100 100 100 100 99 99 99 99 99 98
68 69 66 68 72 70 70 79 85 82 87 94 95 96 96 96 94 94 97 98 99 100 99 100 100 100 100 100 100 100 100 100 100 100 100 99 99 98
75 75 71 76 68 69 72 68 68 78 82 86 93 92 94 93 94 96 98 99 100 100 99 100 100 100 100 100 100 100 100 100 100 100 100 100 100 99
67 69 73 73 66 70 66 65 70 79 84 86 89 92 94 96 96 96 96 99 100 100 100 100 100 100 100 100 100 100 100 100 100 100 100 100 100 100
71 72 74 72 69 69 69 67 69 74 78 84 87 92 92 92 92 94 97 97 100 99 100 100 100 100 100 100 100 100 100 100 100 100 100 100 100 100
77 79 76 76 74 71 69 66 67 69 78 80 84 84 90 92 91 88 94 96 97 97 95 93 100 100 100 100 100 100 100 100 100 100 100 100 100 100
73 79 85 85 82 75 79 78 74 76 76 76 82 84 86 89 89 86 84 86 90 89 93 93 95 99 100 100 99 100 100 100 100 100 100 100 100 100
80 83 86 88 86 78 77 75 81 77 78 78 82 84 87 83 86 83 84 85 87 84 85 96 96 96 99 100 100 96 100 100 100 100 100 100 100 100
75 84 88 86 82 80 80 80 80 80 80 80 84 86 89 87 88 86 85 90 90 83 75 82 90 90 96 99 99 100 93 100 100 100 100 98 99 98
79 81 85 86 86 83 86 86 87 86 86 87 85 85 89 88 89 85 86 84 86 77 79 80 79 87 88 97 99 100 100 95 96 100 100 99 98 98
86 84 85 86 88 87 88 88 87 86 86 84 87 88 88 88 89 90 89 92 88 88 85 84 79 78 87 91 94 100 100 100 98 96 94 93 99 98
86 84 87 85 85 86 84 88 87 86 86 85 87 86 88 90 87 86 86 86 86 88 84 82 81 84 88 86 91 97 100 98 96 96 96 98 93 89

GFSNE_sfc_rhum_177.txt.gz
RH
75 72 72 72 69 74 76 82 92 94 79 66 68 60 62 59 60 59 60 62 69 72 74 75 77 77 82 93 98 90 88 84 83 82 80 79 76 75
69 77 75 75 72 75 77 76 81 90 93 68 63 65 60 55 56 58 58 64 67 70 72 78 77 78 80 88 94 97 92 88 84 83 82 80 78 77
74 75 79 75 81 76 77 77 81 83 93 76 67 65 64 62 61 60 62 63 62 67 70 74 74 77 78 85 93 98 96 92 88 85 84 82 80 78
76 80 82 73 90 77 80 85 90 77 82 87 70 69 69 65 64 66 59 51 60 62 72 75 75 79 80 82 94 99 99 96 92 89 86 84 82 80
80 85 85 89 82 80 95 84 82 72 76 82 78 70 70 68 70 65 67 67 57 62 66 70 72 74 79 82 93 99 100 100 97 93 91 88 85 83
82 83 79 80 79 94 93 93 79 82 79 80 76 75 76 71 73 79 79 76 76 61 65 70 75 81 84 86 92 99 100 100 99 99 97 96 93 88
83 79 78 70 66 73 94 92 88 87 81 81 83 81 82 86 83 77 84 82 82 75 80 79 78 74 78 86 93 98 99 99 98 99 99 99 97 93
86 83 77 72 76 82 76 72 74 88 93 92 88 88 82 84 83 88 89 92 92 74 83 84 80 83 80 82 96 99 99 99 99 99 99 99 96 95
87 83 79 78 79 90 73 74 82 77 78 91 96 90 91 86 91 92 89 89 90 82 83 89 84 87 82 76 85 100 99 99 99 99 99 99 98 97
82 83 85 83 92 73 78 89 90 86 90 92 86 90 87 84 92 94 95 92 87 87 81 95 85 86 86 90 85 98 99 98 98 99 99 99 99 99
70 74 76 82 72 68 95 92 89 85 80 70 69 68 68 69 74 94 90 93 90 85 81 90 93 93 95 98 94 100 99 99 99 99 99 99 99 99
72 68 69 70 68 83 78 92 92 93 86 86 83 82 78 82 76 94 96 95 93 92 91 90 89 94 100 100 99 100 99 99 99 99 98 98 98 97
72 73 76 70 78 65 64 80 88 79 82 85 86 85 84 84 84 90 95 97 95 93 80 93 95 93 97 98 100 100 99 100 99 99 99 99 98 98
81 86 74 72 63 62 66 65 67 78 84 85 87 87 88 90 85 91 94 95 93 97 95 99 98 98 96 96 98 100 100 100 99 100 99 99 99 98
77 67 65 64 65 73 67 64 71 82 87 89 89 90 88 85 84 92 88 85 86 87 98 98 98 97 98 97 98 100 100 100 100 99 99 99 98 98
85 81 83 78 81 80 77 73 73 78 85 89 90 87 81 82 86 92 94 92 93 88 86 96 99 99 98 98 98 99 100 100 100 99 99 100 100 99
84 88 89 84 83 80 76 72 73 75 84 84 87 87 84 85 85 88 92 92 94 94 92 90 93 98 98 99 100 99 99 100 99 99 99 99 100 100
81 90 92 92 90 86 87 84 80 81 83 84 87 84 87 88 90 87 88 92 94 93 94 94 95 95 94 98 97 98 100 99 99 99 99 98 99 100
98 96 94 93 92 87 89 86 86 84 84 84 86 87 89 85 90 91 90 90 90 91 93 95 96 96 95 96 97 99 99 100 98 99 99 99 98 99
98 97 94 91 92 90 91 88 85 86 90 84 85 88 90 91 91 92 91 94 92 91 92 93 95 95 97 98 98 99 99 100 99 98 98 98 98 98
98 98 98 92 93 90 94 90 90 91 93 88 87 87 90 91 90 89 92 94 94 92 93 93 95 97 98 98 98 98 98 99 98 94 96 96 99 99
100 100 99 94 92 92 94 90 90 92 90 88 89 88 89 90 92 92 91 94 93 94 93 92 92 94 96 98 98 99 98 98 98 98 98 97 98 99
100 100 100 97 90 94 91 90 89 94 88 90 90 89 88 92 89 89 91 90 92 91 91 92 92 93 96 97 98 99 98 98 98 97 98 98 98 98